Showing default

RAVEN, 69016

AKA "RAVEN" on Space-Track | Orbit data source: Space-Track

RAVEN, 69016 is a German payload satellite in SSO that was launched on Sun, 03 May 2026 UTC via an FALCON 9 launch vehicle from the Air Force Western Test Range (AFWTR). Payload-class satellites include a variety of spacecraft equipped with specific instruments for various scientific and technological missions. These include communications satellites like Starlink; space stations such as the ISS; scientific satellites like the Hubble; Earth observation satellites from companies like Planet Labs, Umbra, and HawkEye 360; GPS; miniature CubeSats for education and research; and military/defense satellites.

Loading next visibility...
Identifier
69016, 2026-100AN
Orbit
SSO
Country
Flag of DEDE / GER
Related business
None
Manufacturer
Endurosat
Mission
Operational spacecraft
Bus & Motor
CUBESAT 6U, Unknown motor
Mass
~8 kg wet, ~8 kg dry
Launch date (UTC)
2026-05-03 (2 months ago)
Launch vehicle
FALCON 9
Launch site
Air Force Western Test Range (AFWTR)
Object type
Payload
Rocket body
Debris
Shape & HBR
Unknown shape, 14.5 m
Radar Cross Section
Medium (>0.1 m² and <1 m²)

Expand to show TLE details & history
Last TLE update: 16 hours ago

TLE from 16 hours ago
0 RAVEN
1 69016U 26100AN  26175.16581287  .00002143  00000-0  98550-4 0  9991
2 69016  97.4027  72.9282 0008968  36.5112 323.6734 15.21395633  7870
Epoch: 2026-06-24T03:58Z
TLE epoch observation values (Epoch: 2026-06-24T03:58:46.231Z)
Latitude
-0.00003°
Longitude
100.90864°
Altitude
499.752 km
Speed
7.617 km/s
True Right ascension
04h 51m 42s
True Declination
0° 00' 00"
Sunlit
Object was in daylight at epoch
Visualization orbit readout
Latitude
Unknown
Longitude
Unknown
Altitude
Unknown
Speed
Unknown
Apparent Right ascension
Unknown
Apparent Declination
Unknown
Sunlit
N/A
Visualization observer readout
Local Sidereal Time
07:36:48
Azimuth
Unknown
Elevation
Unknown
Doppler factor
Unknown
Orbital elements
Apogee altitude
504.761 km
Perigee altitude
492.427 km
Semi-major axis
6,876.731 km
Eccentricity
0.0009
Inclination
97.4027°
RAAN
72.9282°
Arg. of periapsis
36.5112°
True anomaly
323.61247°
Mean anomaly
323.6734°
Eccentric anomaly
323.64294°
Mean motion
3.80601 °/min
Orbital period
94.59 mins
BSTAR
0.00009855
Loading maneuver chart data...
Computing Atmospheric mass density...
Loading historical data...
Loading historical data...
Loading historical data...
Loading historical data...
Loading historical data...
Loading historical data...
Loading historical data...

Documentation

Showing up to 5 results
|